When you browse on this site, cookies collect data to enhance your experience and personalize the content and advertising you see.
Visit our Privacy Policy to learn more. By continuing to use the site, you agree to this use of cookies and data.
  • In United Kingdom
  • List of Countries
  • For 7 days
  • Water Temperature
  • Weather Map
  • Weather Widgets
  • user-avatar
    Login

    Hourly Weather Gold Coast

    Today, 13 December, Friday

    Time Temperature Precipitation Wind Pressure Humidity
    00:00 +24°C° 0.1 mm 2 mps 755 mmHg 96%
    01:00 +24°C° 0.1 mm 2 mps 754 mmHg 96%
    02:00 +24°C° 0.4 mm 2 mps 754 mmHg 95%
    03:00 +24°C° 0.4 mm 2 mps 754 mmHg 95%
    04:00 +24°C° 0 mm 2 mps 754 mmHg 96%
    05:00 +24°C° 0.4 mm 2 mps 754 mmHg 91%
    06:00 +25°C° 0.4 mm 2 mps 755 mmHg 87%
    07:00 +26°C° 0.4 mm 1 mps 755 mmHg 82%
    08:00 +26°C° 0.3 mm 3 mps 755 mmHg 81%
    09:00 +27°C° 0.3 mm 4 mps 755 mmHg 80%
    10:00 +27°C° 0.3 mm 5 mps 755 mmHg 79%
    11:00 +27°C° 0.2 mm 5 mps 754 mmHg 78%
    12:00 +27°C° 0.2 mm 5 mps 754 mmHg 76%
    13:00 +27°C° 0.2 mm 5 mps 754 mmHg 75%
    14:00 +26°C° 0.1 mm 4 mps 754 mmHg 75%
    15:00 +26°C° 0.1 mm 4 mps 753 mmHg 74%
    16:00 +26°C° 0.1 mm 4 mps 753 mmHg 73%
    17:00 +25°C° 0.3 mm 4 mps 753 mmHg 78%
    18:00 +23°C° 0.3 mm 4 mps 754 mmHg 84%
    19:00 +22°C° 0.3 mm 4 mps 754 mmHg 89%
    20:00 +22°C° 0.2 mm 3 mps 755 mmHg 91%
    21:00 +21°C° 0.2 mm 3 mps 755 mmHg 92%
    22:00 +21°C° 0.2 mm 3 mps 755 mmHg 94%
    23:00 +21°C° 0 mm 3 mps 755 mmHg 94%

    Tomorrow, 14 December, Saturday

    Time Temperature Precipitation Wind Pressure Humidity
    00:00 +21°C° 0 mm 3 mps 755 mmHg 94%
    01:00 +21°C° 0 mm 3 mps 754 mmHg 94%
    02:00 +21°C° 0 mm 3 mps 754 mmHg 94%
    03:00 +21°C° 0 mm 2 mps 754 mmHg 93%
    04:00 +21°C° 0 mm 2 mps 754 mmHg 93%
    05:00 +23°C° 0 mm 2 mps 754 mmHg 88%
    06:00 +24°C° 0 mm 2 mps 754 mmHg 84%
    07:00 +25°C° 0 mm 2 mps 755 mmHg 79%
    08:00 +27°C° 0 mm 2 mps 755 mmHg 73%
    09:00 +28°C° 0 mm 2 mps 755 mmHg 67%
    10:00 +29°C° 0 mm 3 mps 754 mmHg 60%
    11:00 +29°C° 0.1 mm 3 mps 754 mmHg 61%
    12:00 +29°C° 0.1 mm 3 mps 753 mmHg 62%
    13:00 +29°C° 0.1 mm 3 mps 753 mmHg 62%
    14:00 +29°C° 0.1 mm 3 mps 752 mmHg 65%
    15:00 +29°C° 0.1 mm 3 mps 752 mmHg 67%
    16:00 +28°C° 0.1 mm 3 mps 752 mmHg 70%
    17:00 +27°C° 0 mm 3 mps 752 mmHg 77%
    18:00 +25°C° 0 mm 2 mps 753 mmHg 85%
    19:00 +24°C° 0 mm 2 mps 753 mmHg 92%
    20:00 +24°C° 0 mm 2 mps 753 mmHg 94%
    21:00 +23°C° 0 mm 2 mps 754 mmHg 95%
    22:00 +23°C° 0 mm 2 mps 754 mmHg 97%
    23:00 +23°C° 0 mm 2 mps 754 mmHg 97%

    Day after tomorrow, 15 December, Sunday

    Time Temperature Precipitation Wind Pressure Humidity
    00:00 +23°C° 0 mm 2 mps 754 mmHg 97%
    01:00 +23°C° 0 mm 2 mps 753 mmHg 97%
    02:00 +23°C° 0 mm 2 mps 753 mmHg 97%
    03:00 +23°C° 0 mm 2 mps 753 mmHg 97%
    04:00 +23°C° 0 mm 2 mps 753 mmHg 98%
    05:00 +24°C° 0 mm 2 mps 753 mmHg 91%
    06:00 +26°C° 0 mm 3 mps 754 mmHg 84%
    07:00 +27°C° 0 mm 3 mps 754 mmHg 78%
    08:00 +29°C° 0 mm 3 mps 754 mmHg 68%
    09:00 +32°C° 0 mm 4 mps 754 mmHg 58%
    10:00 +34°C° 0 mm 4 mps 754 mmHg 48%
    11:00 +35°C° 0 mm 5 mps 753 mmHg 45%
    12:00 +36°C° 0 mm 5 mps 752 mmHg 41%
    13:00 +37°C° 0 mm 5 mps 752 mmHg 37%
    14:00 +36°C° 0 mm 6 mps 751 mmHg 44%
    15:00 +34°C° 0 mm 6 mps 751 mmHg 50%
    16:00 +33°C° 0 mm 7 mps 750 mmHg 56%
    17:00 +30°C° 0 mm 6 mps 751 mmHg 65%
    18:00 +28°C° 0 mm 5 mps 751 mmHg 74%
    19:00 +26°C° 0 mm 4 mps 752 mmHg 84%
    20:00 +25°C° 0 mm 4 mps 752 mmHg 87%
    21:00 +25°C° 0 mm 4 mps 753 mmHg 91%
    22:00 +23°C° 0 mm 4 mps 753 mmHg 94%
    23:00 +23°C° 0 mm 4 mps 753 mmHg 95%

    16 December, Monday

    Time Temperature Precipitation Wind Pressure Humidity
    00:00 +24°C° 0 mm 3 mps 752 mmHg 95%
    01:00 +22°C° 0 mm 3 mps 752 mmHg 95%
    02:00 +22°C° 0 mm 3 mps 752 mmHg 96%
    03:00 +22°C° 0 mm 3 mps 752 mmHg 96%
    04:00 +23°C° 0 mm 2 mps 752 mmHg 97%
    05:00 +25°C° 0 mm 2 mps 752 mmHg 88%
    06:00 +27°C° 0 mm 2 mps 752 mmHg 78%
    07:00 +28°C° 0 mm 2 mps 753 mmHg 69%
    08:00 +33°C° 0 mm 3 mps 753 mmHg 54%
    09:00 +36°C° 0 mm 3 mps 753 mmHg 40%
    10:00 +39°C° 0 mm 3 mps 753 mmHg 25%
    11:00 +39°C° 0 mm 3 mps 752 mmHg 25%
    12:00 +40°C° 0 mm 3 mps 752 mmHg 25%
    13:00 +40°C° 0 mm 3 mps 751 mmHg 25%
    14:00 +37°C° 0 mm 5 mps 751 mmHg 32%
    15:00 +34°C° 0 mm 7 mps 751 mmHg 39%
    16:00 +31°C° 0 mm 9 mps 752 mmHg 46%
    17:00 +28°C° 0 mm 9 mps 753 mmHg 55%
    18:00 +26°C° 0 mm 9 mps 754 mmHg 63%
    19:00 +23°C° 0 mm 9 mps 756 mmHg 71%
    20:00 +23°C° 0 mm 8 mps 756 mmHg 72%
    21:00 +22°C° 0 mm 8 mps 757 mmHg 73%
    22:00 +22°C° 0 mm 8 mps 758 mmHg 74%
    23:00 +21°C° 0 mm 7 mps 758 mmHg 75%

    17 December, Tuesday

    Time Temperature Precipitation Wind Pressure Humidity
    00:00 +21°C° 0 mm 7 mps 758 mmHg 76%
    01:00 +21°C° 0 mm 6 mps 757 mmHg 76%
    02:00 +20°C° 0 mm 6 mps 757 mmHg 76%
    03:00 +20°C° 0 mm 6 mps 757 mmHg 76%
    04:00 +19°C° 0 mm 6 mps 757 mmHg 76%
    05:00 +20°C° 0 mm 6 mps 758 mmHg 71%
    06:00 +21°C° 0 mm 6 mps 759 mmHg 65%
    07:00 +22°C° 0 mm 7 mps 759 mmHg 60%
    08:00 +23°C° 0 mm 7 mps 759 mmHg 55%
    09:00 +26°C° 0 mm 7 mps 759 mmHg 49%
    10:00 +27°C° 0 mm 7 mps 760 mmHg 43%
    11:00 +28°C° 0 mm 7 mps 759 mmHg 42%
    12:00 +28°C° 0 mm 7 mps 759 mmHg 41%
    13:00 +28°C° 0 mm 7 mps 759 mmHg 40%
    14:00 +28°C° 0 mm 7 mps 759 mmHg 42%
    15:00 +27°C° 0 mm 7 mps 758 mmHg 44%
    16:00 +26°C° 0 mm 7 mps 758 mmHg 47%
    17:00 +24°C° 0 mm 6 mps 759 mmHg 56%
    18:00 +22°C° 0 mm 6 mps 759 mmHg 65%
    19:00 +20°C° 0 mm 5 mps 760 mmHg 74%
    20:00 +19°C° 0 mm 5 mps 760 mmHg 78%
    21:00 +17°C° 0 mm 5 mps 760 mmHg 82%
    22:00 +17°C° 0 mm 5 mps 761 mmHg 86%
    23:00 +17°C° 0 mm 4 mps 760 mmHg 88%

    18 December, Wednesday

    Time Temperature Precipitation Wind Pressure Humidity
    00:00 +15°C° 0 mm 4 mps 760 mmHg 89%
    01:00 +15°C° 0 mm 4 mps 760 mmHg 91%
    02:00 +15°C° 0 mm 4 mps 759 mmHg 91%
    03:00 +14°C° 0 mm 3 mps 759 mmHg 92%
    04:00 +14°C° 0 mm 3 mps 759 mmHg 92%
    05:00 +17°C° 0 mm 3 mps 760 mmHg 82%
    06:00 +19°C° 0 mm 4 mps 760 mmHg 72%
    07:00 +22°C° 0 mm 4 mps 760 mmHg 62%
    08:00 +23°C° 0 mm 4 mps 760 mmHg 55%
    09:00 +26°C° 0 mm 4 mps 760 mmHg 48%
    10:00 +28°C° 0 mm 4 mps 760 mmHg 41%
    11:00 +28°C° 0 mm 4 mps 760 mmHg 40%
    12:00 +29°C° 0 mm 4 mps 760 mmHg 39%
    13:00 +29°C° 0 mm 4 mps 759 mmHg 39%
    14:00 +28°C° 0 mm 4 mps 759 mmHg 41%
    15:00 +28°C° 0 mm 4 mps 759 mmHg 44%
    16:00 +27°C° 0 mm 5 mps 758 mmHg 46%
    17:00 +25°C° 0 mm 4 mps 759 mmHg 55%
    18:00 +22°C° 0 mm 3 mps 759 mmHg 64%
    19:00 +20°C° 0 mm 3 mps 760 mmHg 72%
    20:00 +19°C° 0 mm 2 mps 760 mmHg 75%
    21:00 +19°C° 0 mm 2 mps 760 mmHg 77%
    22:00 +18°C° 0 mm 2 mps 761 mmHg 80%
    23:00 +19°C° 0 mm 1 mps 760 mmHg 81%
    Show more